Zurück zum Katalog

ONEWEB-0600

AktivKommunikationPO
NORAD 54664·PAYLOAD·🇬🇧 United Kingdom

Gestartet Dec 8, 2022 von Cape Canaveral Space Force Station

Loading…

Nächste Überflüge (nächste 24 Stunden)

TLE

AktuellSource: CelesTrak SupGP

Epoche: Sep 14, 2026, 09:17 UTC

1 54664C 22166Y   26257.38698335  .00002348  00000+0  56911-2 0  2576
2 54664  87.9278 226.2210 0002311  80.7070  29.5094 13.21826341    13

Verfolge ONEWEB-0600 in Echtzeit mit AllMySat

Download on the App Store